{"data":{"norad_id":63818,"epoch":"2026-05-25T03:49:31.944000Z","epoch_age_seconds":57463,"freshness":"FRESH","line1":"1 63818U 25092Q   26145.15939750  .00015750  00000+0  58053-3 0  9992","line2":"2 63818  42.9967 100.3428 0000676 248.1180 111.9600 15.27586247 60366","mean_motion":15.27586247,"eccentricity":6.76e-5,"inclination_deg":42.9967,"raan_deg":100.3428,"arg_perigee_deg":248.118,"mean_anomaly_deg":111.96,"bstar":0.00058053,"rev_number":6036,"period_min":94.26636321373,"perigee_km":482.56657542247,"apogee_km":483.49420525364,"semimajor_km":6861.1673903381,"source":"CELESTRAK","updated_at":"2026-05-25T13:38:20.142329Z"}}